EHI
0 0 0 0 0 0 0 0 0 0 0 0 0 1 2 1 0 0 2 11 16 8 1 0 0 0 0 0 0 0 0 0 1 2 2 1 0 0 1 0 0 1 1 1 1 0 0 0 0
0 0 0 0 0 0 0 0 0 0 0 0 0 1 2 1 1 1 2 7 9 5 0 0 0 0 0 0 0 0 0 1 3 7 6 2 0 1 2 2 1 0 0 1 1 0 0 0 0
0 0 0 0 0 0 0 0 0 0 0 0 0 1 1 1 2 3 3 5 7 5 1 0 0 0 1 1 1 1 1 2 8 18 19 10 2 1 3 3 2 0 0 0 0 0 0 0 0
0 0 0 0 0 0 0 0 0 0 0 0 0 0 0 2 5 5 4 8 12 8 2 0 0 2 4 7 8 5 3 5 17 38 43 24 8 3 2 1 1 0 0 0 0 0 0 0 0
0 0 0 0 0 0 0 0 0 0 0 0 0 0 0 6 12 9 5 9 13 9 3 0 0 3 9 19 25 18 11 17 37 63 66 39 14 4 1 0 0 0 0 0 0 0 0 0 0
0 0 0 0 0 0 0 0 0 0 0 0 0 1 1 12 22 17 13 18 19 15 7 1 0 3 12 30 42 34 23 30 53 73 72 45 17 5 2 0 0 1 1 0 0 0 0 0 0
0 0 0 0 0 0 0 0 0 0 0 0 0 1 1 15 33 36 39 43 35 24 11 3 3 6 12 30 50 48 33 31 44 58 56 35 15 5 2 0 1 2 1 0 0 0 0 0 0
0 0 0 0 0 0 0 0 0 0 0 0 0 1 1 17 44 64 65 54 35 18 8 4 9 14 12 23 50 59 43 28 31 37 32 19 9 3 1 0 0 1 0 0 0 0 0 0 0
0 0 0 0 0 0 0 0 0 1 2 2 3 3 2 20 57 80 70 43 19 9 6 4 10 14 9 14 37 49 36 23 21 22 16 7 3 1 0 0 0 0 0 0 0 0 0 0 0
0 0 0 0 0 0 0 0 0 1 2 8 15 14 7 24 62 82 64 31 12 9 6 3 5 6 3 5 14 18 14 9 8 8 5 2 0 0 0 0 0 0 0 0 0 0 0 0 0
0 0 0 0 0 0 0 0 0 1 1 13 31 27 12 22 54 75 59 28 10 6 4 2 1 1 0 0 1 1 0 0 1 1 0 0 0 0 0 0 0 0 0 0 0 0 0 0 0
0 0 0 0 0 0 0 0 0 0 0 15 34 31 14 17 37 52 45 22 5 1 1 0 0 0 0 0 0 0 0 0 0 0 0 0 0 0 0 0 0 0 0 0 0 0 0 0 0
0 0 0 0 0 0 0 0 0 0 0 10 22 21 13 11 19 27 23 12 3 0 0 0 1 1 1 0 0 0 0 1 0 0 0 0 0 0 0 0 0 0 0 0 0 0 0 0 0
0 0 0 0 0 0 0 0 0 0 0 3 8 9 8 11 15 14 8 3 1 1 1 1 3 4 3 1 0 0 0 0 0 0 0 0 0 0 0 0 0 0 0 0 0 0 0 0 0
0 0 0 0 0 0 0 0 0 0 0 0 1 2 4 10 14 9 2 0 1 2 1 3 7 10 7 3 0 0 0 0 0 0 0 0 0 0 0 0 0 0 0 0 0 0 0 0 0
0 0 0 0 0 0 0 0 0 0 0 0 0 1 3 6 6 3 0 0 0 1 1 2 8 12 7 2 0 0 0 0 0 0 0 0 0 0 0 0 0 0 0 0 0 0 0 0 0
0 0 0 0 0 0 0 0 0 0 0 0 0 1 2 2 1 0 0 0 0 0 0 1 4 5 3 0 0 0 0 0 0 0 0 0 0 0 0 0 0 0 0 0 0 0 0 0 0
0 0 0 0 0 0 0 0 0 0 0 0 1 1 1 1 0 0 0 0 0 0 0 1 2 1 0 0 0 0 0 0 0 0 0 0 0 0 0 0 0 0 0 0 0 0 0 0 0
0 0 0 0 0 0 0 0 0 0 0 2 4 6 7 5 1 0 0 0 0 0 0 2 3 2 0 0 0 0 0 0 0 0 0 0 0 0 0 0 0 0 0 0 0 0 0 0 0
0 0 0 0 0 0 0 0 0 0 0 8 22 32 35 31 20 9 2 0 0 0 0 2 2 1 0 0 0 0 0 0 0 0 0 0 0 0 0 0 0 0 0 0 0 0 0 0 0
0 0 0 0 0 0 0 0 0 0 2 18 47 66 67 60 44 20 4 0 0 0 0 0 0 0 0 0 0 0 0 0 0 0 0 0 0 0 0 0 0 0 0 0 0 0 0 0 0
0 0 0 0 0 0 0 0 0 0 3 21 50 66 62 51 35 16 3 0 0 0 0 0 0 0 0 0 0 0 0 0 0 0 0 0 0 0 0 0 0 0 0 0 0 0 0 0 0
0 0 0 0 0 0 0 0 0 0 2 14 32 38 28 17 10 4 1 0 0 0 0 0 0 0 0 0 0 0 0 0 0 0 0 0 0 0 0 0 0 0 0 0 0 0 0 0 0
0 0 0 0 0 0 0 0 0 0 2 11 20 16 5 1 0 0 0 0 0 0 0 0 0 0 0 0 0 0 0 0 0 0 0 0 0 0 0 0 0 0 0 0 0 0 0 0 0
0 0 0 0 0 0 0 0 0 0 3 10 12 6 1 0 0 0 0 0 0 0 0 0 0 0 0 0 0 0 0 0 0 0 0 0 0 0 0 0 0 0 0 0 0 0 0 0 0
0 0 0 0 0 0 0 0 0 0 1 4 4 2 0 0 0 0 0 0 0 0 0 0 0 0 0 0 0 0 0 0 0 0 0 0 0 0 0 0 0 0 0 0 0 0 0 0 0
0 0 0 0 0 0 0 0 0 0 0 0 0 0 0 0 0 0 0 0 0 0 0 0 0 0 0 0 0 0 0 0 0 0 0 0 0 0 0 0 0 0 0 0 0 0 0 0 0
0 0 0 0 0 0 0 0 0 0 0 0 0 0 0 0 0 0 0 0 0 0 0 0 0 0 0 0 0 0 0 0 0 0 0 0 0 0 0 0 0 0 0 0 0 0 0 0 0
0 0 0 0 0 0 0 0 0 0 0 0 0 0 0 0 0 0 0 0 0 0 0 0 0 0 0 0 0 0 0 0 0 0 0 0 0 0 0 0 0 0 0 0 0 0 0 0 0
0 0 0 0 0 0 0 0 0 0 0 0 0 0 0 0 0 0 0 0 0 0 0 0 0 0 0 0 0 0 0 0 0 0 0 0 0 0 0 0 0 0 0 0 0 0 0 0 0
Wind_Speed
2 2 0 2 5 3 2 5 5 5 1 2 6 10 10 8 7 4 4 9 14 9 7 10 12 12 11 10 10 11 11 12 12 12 11 10 9 8 7 7 7 8 9 9 8 8 7 6 5
2 2 3 4 5 2 4 6 5 4 5 6 7 9 8 5 8 10 7 10 12 9 6 9 13 12 12 11 12 11 11 11 11 11 10 9 9 9 8 7 8 8 8 8 7 6 5 3 2
0 2 3 4 3 4 6 8 6 6 6 7 5 3 6 3 11 10 11 13 11 8 6 10 13 12 12 11 12 11 12 12 10 10 9 9 8 7 8 10 10 10 9 9 8 6 5 4 3
1 3 3 2 3 7 8 7 3 8 4 5 6 5 4 1 6 14 16 15 12 9 8 11 13 13 13 12 11 11 11 11 11 10 9 8 8 7 8 10 11 9 8 8 8 7 6 4 1
2 3 2 1 6 8 12 9 3 8 4 6 7 7 4 3 16 19 16 15 13 9 6 8 11 11 12 12 11 10 10 10 9 10 9 7 7 7 7 9 10 9 7 6 6 4 4 3 1
2 2 1 4 5 8 9 7 7 4 6 8 11 9 2 9 18 16 14 12 12 10 7 6 11 11 11 12 11 9 8 8 8 9 8 7 6 5 5 6 7 7 7 5 4 2 2 1 2
1 3 3 6 9 6 5 6 9 9 9 6 10 9 5 6 17 16 13 13 11 11 9 6 7 10 10 10 10 9 7 7 6 7 7 6 4 5 5 5 5 6 6 4 2 2 2 2 2
3 2 2 6 8 4 8 8 9 11 5 7 9 11 10 14 20 18 15 13 9 8 7 4 3 5 5 5 8 8 7 6 6 6 5 4 4 4 3 3 4 5 4 3 4 5 4 3 4
3 1 4 5 6 3 3 6 2 2 8 3 3 8 16 19 20 17 14 11 9 6 6 4 3 5 4 4 6 7 7 7 6 6 5 4 1 1 1 2 4 4 5 5 6 4 4 4 5
4 4 8 6 5 3 2 2 6 6 4 4 7 11 17 18 19 19 15 12 6 7 6 7 7 6 5 3 3 3 4 4 4 4 3 2 2 2 3 3 5 5 5 5 5 4 6 5 3
4 8 10 15 11 2 3 4 4 11 5 12 19 21 19 16 18 17 14 10 4 5 6 9 8 6 2 1 1 1 1 2 3 4 5 3 3 2 1 0 1 2 3 2 3 4 3 3 3
6 11 9 13 7 1 1 1 4 3 8 15 24 25 19 15 16 16 15 11 7 5 0 4 5 4 3 3 2 2 2 2 3 4 5 3 2 3 3 2 2 2 2 2 2 2 4 5 5
5 9 10 8 1 2 1 2 1 4 9 14 18 20 18 15 18 19 20 16 14 9 3 5 6 6 6 6 4 3 3 3 3 3 2 2 4 4 4 3 3 3 3 3 2 2 3 4 5
6 10 12 9 0 1 2 3 2 2 13 14 15 14 16 20 23 23 21 17 18 17 12 12 12 8 5 3 4 3 3 4 3 3 2 2 2 1 1 1 1 2 2 2 2 2 2 3 4
3 7 9 5 1 2 3 4 3 5 12 12 14 16 16 16 22 23 20 17 15 14 14 11 6 6 8 7 5 4 3 3 3 3 3 3 3 2 2 1 1 0 1 1 1 1 2 3 4
5 3 5 8 3 1 4 7 7 4 10 8 14 15 15 13 17 18 16 12 7 6 6 3 7 5 6 6 5 4 5 3 2 2 2 3 3 4 3 4 4 3 3 3 3 3 3 3 3
4 3 7 11 7 1 3 8 1 7 15 12 16 17 17 16 17 14 9 4 3 7 8 8 8 6 8 8 6 5 5 4 4 4 5 6 7 7 5 4 3 3 3 3 3 2 2 3 4
5 4 6 8 8 2 7 6 5 6 17 14 14 15 15 17 14 10 7 4 5 7 8 7 3 8 10 7 6 5 5 5 6 6 6 6 6 6 4 2 2 2 2 2 1 2 3 3 3
6 7 10 15 12 3 4 8 9 11 15 13 11 10 10 8 7 6 6 4 2 2 2 1 4 7 6 4 4 4 4 4 5 6 7 7 7 7 4 4 5 5 4 4 5 3 4 4 5
8 9 14 15 8 2 7 10 8 7 12 12 13 13 13 13 8 6 4 3 3 4 5 7 7 8 7 4 3 4 4 4 5 4 6 8 8 8 7 6 4 4 4 5 5 3 2 3 5
11 10 14 14 6 5 7 7 6 5 8 11 12 13 12 11 12 10 10 8 8 6 7 9 11 11 10 8 6 7 7 6 5 5 4 5 6 6 5 4 3 3 3 3 4 5 6 4 3
13 15 12 9 3 3 6 5 3 4 7 9 10 10 11 10 10 10 11 10 10 9 9 11 11 9 8 9 9 8 4 3 2 2 2 3 4 5 6 7 7 6 6 7 6 6 4 4 4
14 16 10 5 3 2 1 4 5 7 7 8 9 11 9 9 9 10 10 8 9 10 10 10 10 9 7 7 6 5 4 2 2 3 5 6 6 7 8 7 7 7 6 6 6 6 5 4 4
13 5 0 3 3 4 5 6 8 13 16 17 14 13 11 8 9 10 10 9 8 9 9 8 10 8 7 6 6 6 6 5 5 4 4 4 4 4 6 6 5 4 3 3 3 2 2 3 3
4 4 3 3 4 6 6 4 9 15 16 19 18 15 13 11 10 10 8 7 8 8 7 7 10 8 7 7 8 8 7 7 6 4 4 4 4 4 6 7 6 5 4 4 4 3 3 4 4
5 8 10 10 9 7 2 3 7 11 16 16 15 14 14 11 9 9 7 6 8 9 7 7 8 7 7 8 8 7 7 5 5 5 4 4 3 3 4 5 5 5 5 4 4 3 4 5 5
4 6 10 8 4 3 2 3 6 8 17 20 19 18 15 13 12 11 9 7 9 10 7 7 8 8 8 7 7 7 6 6 5 4 3 2 2 3 4 5 5 5 5 5 4 4 4 5 5
8 8 5 4 8 7 3 5 11 15 17 19 19 17 17 15 13 11 8 8 10 9 6 7 8 7 6 6 6 5 5 4 4 4 4 4 3 3 4 5 5 5 5 6 5 4 5 5 6
4 4 4 4 5 7 5 8 14 23 22 20 16 17 18 15 12 10 10 10 11 8 7 6 6 6 7 6 4 4 4 3 2 2 4 5 5 4 3 3 3 3 3 2 3 4 5 6 8
6 6 9 8 6 5 6 8 9 19 18 18 17 16 14 12 10 11 10 9 8 7 6 7 6 6 6 5 4 3 3 3 3 4 5 4 5 5 3 3 4 1 2 3 3 5 6 7 10
Wind_Direction
267 268 208 48 54 56 266 251 219 255 49 205 158 142 148 148 140 154 127 119 122 136 148 135 125 119 119 127 129 135 140 142 140 139 137 135 132 126 122 119 120 122 124 125 128 134 142 152 160
314 328 43 59 80 54 278 265 238 210 131 149 112 112 88 59 84 122 127 130 127 139 151 133 126 127 126 129 131 137 142 144 144 141 141 143 147 148 142 135 132 135 136 138 139 144 148 162 202
294 54 69 67 100 188 234 248 273 309 150 180 157 130 88 109 123 135 136 140 135 139 135 127 129 129 125 121 129 136 142 146 148 146 146 150 157 161 153 148 145 148 152 155 155 163 169 180 221
53 46 51 102 225 238 233 248 254 278 178 144 140 89 55 168 124 131 143 141 132 130 131 130 134 131 127 125 124 134 146 152 153 150 148 149 155 163 164 157 152 154 159 165 161 166 164 155 146
54 81 58 226 230 248 236 218 219 239 144 122 116 85 38 56 112 131 145 143 134 131 123 126 126 124 127 128 124 129 143 145 145 144 142 146 151 159 170 165 161 162 159 147 141 152 142 137 126
46 65 13 271 252 255 250 196 233 205 130 119 111 111 81 120 130 147 148 135 130 125 113 119 128 130 130 132 129 128 136 138 141 138 134 138 148 155 166 166 160 149 146 148 149 166 159 163 316
123 83 275 276 284 258 228 173 213 155 148 136 128 104 159 150 151 149 130 120 124 126 132 141 143 139 137 136 133 132 136 135 147 143 135 136 140 138 148 164 163 152 157 168 173 261 283 316 302
152 113 270 284 284 250 188 177 182 162 132 140 136 140 181 173 153 137 126 119 127 145 132 117 126 115 120 138 139 139 142 145 147 135 130 126 121 135 149 151 179 173 185 216 244 251 246 254 280
145 205 255 260 289 334 167 149 122 97 127 145 144 156 165 169 141 126 119 123 139 125 92 109 128 111 136 161 155 152 155 158 153 148 152 145 142 152 142 165 200 195 205 227 243 258 278 288 302
158 201 239 245 286 354 346 95 129 99 98 85 83 122 154 163 138 136 138 145 145 119 128 149 154 148 170 167 145 146 164 167 171 169 172 168 182 199 177 200 195 199 218 240 258 282 292 297 304
209 236 261 271 266 118 16 0 101 124 167 162 146 153 163 157 140 136 139 130 101 104 148 173 160 153 155 150 148 154 187 181 185 188 186 182 171 160 134 172 317 291 265 276 294 288 279 279 280
241 261 254 263 252 120 91 19 129 165 191 171 158 159 157 149 133 131 113 92 68 53 23 238 159 146 177 165 182 192 203 204 211 203 183 166 165 168 191 178 210 239 250 245 261 278 287 293 291
251 280 287 267 199 284 46 342 241 170 166 160 154 154 141 121 113 106 104 102 89 69 345 258 198 190 179 167 167 173 201 197 176 152 144 186 192 192 205 201 215 231 221 213 251 262 265 266 280
275 294 297 300 73 47 27 336 346 158 144 156 145 122 123 128 128 121 122 142 152 163 174 209 192 177 155 126 120 133 136 128 120 97 74 72 118 149 174 189 215 261 215 181 213 239 250 263 269
288 307 317 297 255 154 83 336 308 160 158 152 112 110 109 125 137 143 156 166 170 189 191 197 159 156 143 128 118 94 80 112 123 117 90 88 114 123 81 71 84 352 288 222 221 291 350 336 338
340 341 310 289 251 220 113 260 282 141 137 129 122 122 118 128 144 157 170 166 190 209 209 146 91 111 119 111 96 78 84 78 89 87 64 28 21 37 44 32 23 21 19 24 11 10 355 347 326
357 286 291 290 283 138 168 236 232 97 113 122 136 141 139 141 156 168 168 157 31 2 16 31 65 98 108 100 89 76 83 76 66 59 38 29 32 36 44 58 41 38 46 40 28 356 330 295 305
253 276 285 282 289 192 213 198 104 103 109 119 132 141 145 152 162 161 138 106 45 10 14 26 46 113 108 103 93 76 62 58 58 49 35 30 29 30 35 22 10 40 47 12 23 321 282 279 316
236 259 272 277 282 279 228 131 109 117 109 114 116 117 118 121 131 133 131 141 106 26 344 39 89 95 99 83 86 88 60 38 48 38 28 25 20 16 22 18 6 5 8 5 16 357 342 357 3
246 263 273 279 278 104 91 77 71 111 123 122 120 120 122 123 132 143 144 121 103 79 64 65 69 60 52 60 66 79 79 58 48 40 31 24 23 18 24 26 16 13 21 27 19 12 5 16 32
245 232 250 259 281 88 97 58 51 52 94 105 113 121 119 124 131 130 133 131 119 104 87 81 71 62 54 52 59 55 47 37 31 21 22 16 29 33 34 24 13 18 42 44 36 29 34 10 14
254 246 233 243 230 195 168 156 184 175 120 116 118 118 118 112 108 110 116 119 117 112 101 91 82 73 65 63 70 73 73 62 24 1 10 3 10 10 14 17 20 21 27 35 34 35 25 8 347
237 248 231 225 234 251 137 159 201 172 156 149 131 124 122 117 116 112 111 111 110 109 101 94 90 83 79 81 87 89 81 67 18 7 9 0 4 24 34 35 33 29 30 30 28 20 8 344 326
234 226 349 56 74 279 236 213 211 192 174 158 147 137 129 117 110 106 104 95 84 86 92 95 92 82 74 74 72 72 70 50 43 28 24 12 11 18 20 25 25 15 12 5 360 1 358 323 308
196 192 255 282 268 251 247 219 241 197 158 153 146 141 139 135 125 118 114 107 102 89 82 82 82 72 67 65 59 62 65 63 57 39 36 27 11 0 359 3 359 353 351 350 346 347 338 315 322
213 173 188 209 234 262 290 292 308 145 132 130 133 138 140 138 130 125 130 130 109 93 85 81 81 72 60 66 71 68 60 52 41 33 33 29 8 340 340 344 345 340 336 339 344 339 331 331 317
233 186 195 174 186 210 172 102 39 98 129 141 149 146 142 142 135 136 139 129 105 93 87 84 75 65 64 75 73 63 54 50 43 33 36 29 359 330 343 342 338 332 335 346 349 343 340 343 327
204 191 154 183 195 229 235 204 177 170 163 155 153 147 145 146 146 149 138 115 102 99 93 75 72 73 68 73 75 72 60 52 41 26 5 346 329 329 336 333 336 331 339 351 356 332 329 329 309
197 154 159 175 177 197 220 249 192 185 170 157 149 143 145 147 151 134 121 117 107 105 92 81 75 68 62 72 63 54 47 42 24 345 336 332 327 324 306 305 318 324 337 359 338 317 312 310 305
198 186 160 169 212 195 185 248 199 179 162 151 141 137 138 136 126 117 120 114 107 101 89 77 79 78 80 84 60 30 11 354 339 331 335 346 339 323 301 308 302 244 226 251 274 298 308 308 304